Simultaneous Nadir Overpasses (SNOs) Predictions

Prediction of SNOs between AQUA and NPP Satellite Orbit:

Table of predicted SNOs for the next 14.0 days since TLE Epoch: 12/10/2022
Index Date (AQUA) Time (AQUA) Lat,Lon (AQUA) SZA (AQUA ) Date (NPP) Time (NPP) Lat,Lon (NPP) SZA (NPP ) Distance(km) Time Diff (sec)
1 12/12/2022 05:11:34 -79.24, 177.34 64.90 12/12/2022 05:11:18 -79.25, 177.46 64.91 2.49 16
2 12/12/2022 06:00:53 79.47, -13.51 114.81 12/12/2022 06:01:56 79.47, -13.49 114.75 0.54 63
3 12/14/2022 20:37:35 79.17, 125.39 115.43 12/14/2022 20:37:34 79.17, 125.28 115.45 2.28 1
4 12/14/2022 21:25:12 -81.76, -28.85 70.29 12/14/2022 21:26:25 -81.29, -28.48 70.60 52.84 73
5 12/17/2022 11:14:14 78.96, -95.05 115.88 12/17/2022 11:13:09 78.95, -95.11 115.94 1.37 65
6 12/17/2022 12:03:33 -79.26, 74.50 64.53 12/17/2022 12:03:46 -79.25, 74.38 64.52 2.72 13
7 12/20/2022 02:40:09 -79.11,-145.62 64.20 12/20/2022 02:39:18 -79.11,-145.54 64.18 1.79 51
8 12/20/2022 03:29:27 79.36, 23.69 115.46 12/20/2022 03:29:55 79.36, 23.68 115.44 0.24 28
9 12/22/2022 18:06:04 79.18, 163.37 115.77 12/22/2022 18:05:29 79.18, 163.44 115.79 1.64 35



Historial Predications of SNOs between AQUA and NPP
